[[{"header":{"parameterUnit":"m.s-1","parameterCategory":1,"la1":30.2991,"la2":30.254,"lo1":-89.0895,"lo2":-89.0444,"dy":0.0017,"dx":0.0017,"nx":28,"ny":28,"refTime":"2024-08-20T21:00:00:Z","depth":0,"parameterNumber":2,"parameterNumberName":"U-component_of_WINDS"},"data":[0,0,0,0,0,0,0,0,0,0,0,0,0,0,0,0,0,0,0,0,0,0,0,0,0,0,0,0,0,0,0,0,0,0,0,0,0,0,0,0,0,0,0,0,0,0,0,0,0,0,0,0,0,0,0,0,0,0,-0.8702,-0.8701,0,-0.8609,-0.8607,-0.8606,-0.8518,-0.8517,-0.8516,-0.8515,-0.8422,-0.842,-0.8419,0,0,0,0,0,0,0,0,0,0,0,0,0,-0.8808,-0.8807,-0.8702,-0.8701,-0.87,-0.8609,-0.8607,-0.8606,-0.8518,-0.8517,-0.8516,-0.8514,-0.8422,-0.8421,-0.8419,0,0,0,0,0,0,0,0,0,0,0,0,0,-0.8743,-0.8806,-0.8702,-0.8645,-0.8639,-0.8609,-0.8607,-0.8606,-0.8519,-0.8517,-0.8515,-0.8514,-0.8423,-0.8421,-0.8419,-0.8439,0,0,-0.8412,-0.8411,0,0,0,0,0,0,0,0,-0.8747,-0.8739,-0.8655,-0.8649,-0.8642,-0.8573,-0.861,-0.855,-0.8519,-0.8564,-0.8515,-0.8513,-0.8474,-0.8467,-0.8453,-0.8434,-0.843,-0.8412,-0.8411,-0.841,-0.8409,0,0,0,0,0,0,0,-0.8752,-0.8743,-0.8665,-0.8654,-0.8646,-0.8625,-0.8614,-0.8599,-0.853,-0.856,-0.8554,-0.8544,-0.847,-0.8456,-0.8451,-0.8429,-0.8412,-0.841,-0.8409,-0.8408,-0.8423,-0.8425,0,0,0,0,0,0,-0.8764,-0.8747,-0.8668,-0.8662,-0.8691,-0.8624,-0.8612,-0.8597,-0.853,-0.8518,-0.8545,-0.854,-0.846,-0.8453,-0.8447,-0.8467,-0.841,-0.8408,-0.8406,-0.8422,-0.8424,-0.8425,0,0,0,0,0,0,-0.8767,-0.8758,-0.8672,-0.8703,-0.869,-0.8624,-0.8608,-0.8596,-0.8582,-0.8518,-0.8506,-0.8543,-0.8459,-0.845,-0.8442,-0.8463,-0.8407,-0.8405,-0.842,-0.8422,-0.8425,-0.8507,0,0,0,0,0,0,-0.8771,-0.876,-0.8766,-0.8704,-0.8689,-0.8667,-0.861,-0.8596,-0.8578,-0.857,-0.8513,-0.8502,-0.8457,-0.8445,-0.844,-0.8459,-0.8403,-0.8417,-0.8421,-0.8424,-0.8502,-0.8512,-0.8521,0,0,0,0,0,-0.8775,-0.8793,-0.8767,-0.8758,-0.8695,-0.8669,-0.866,-0.8607,-0.858,-0.8586,-0.8546,-0.8504,-0.8461,-0.8445,-0.8438,-0.8457,-0.8416,-0.842,-0.8424,-0.8498,-0.851,-0.852,0,0,0,0,0,0,-0.886,-0.8784,-0.8754,-0.8752,-0.8718,-0.8654,-0.866,-0.8622,-0.8594,-0.8588,-0.8525,-0.8513,-0.8512,-0.8483,-0.8467,-0.8473,-0.8433,-0.8436,-0.8492,-0.8503,-0.8512,-0.852,-0.8401,0,0,0,0,0,-0.8878,-0.8862,-0.8797,-0.8802,-0.8786,-0.8727,-0.8713,-0.8675,-0.8637,-0.8622,-0.858,-0.8546,-0.8525,-0.8512,-0.8489,-0.8498,-0.8485,-0.8507,-0.8516,-0.8524,-0.8528,-0.8532,-0.8541,-0.8438,-0.8438,-0.8438,0,0,-0.8917,-0.8873,-0.8867,-0.8818,-0.8787,-0.8773,-0.8715,-0.8702,-0.8691,-0.862,-0.861,-0.8578,-0.8536,-0.8536,-0.8534,-0.8512,-0.8553,-0.8529,-0.8536,-0.8535,-0.8537,-0.8546,-0.8555,-0.8441,-0.844,-0.844,0,0,-0.898,-0.8944,-0.8945,-0.8915,-0.8868,-0.8829,-0.8829,-0.8771,-0.8748,-0.8736,-0.8683,-0.867,-0.8634,-0.8606,-0.8588,-0.8642,-0.8603,-0.8636,-0.8684,-0.8689,-0.8697,-0.8704,-0.8725,-0.8733,-0.8639,-0.8639,-0.8639,0,-0.9033,-0.9009,-0.8951,-0.8942,-0.8923,-0.8857,-0.8859,-0.8832,-0.8781,-0.877,-0.8746,-0.8701,-0.8667,-0.8661,-0.8675,-0.8661,-0.8661,-0.8642,-0.8701,-0.8707,-0.8713,-0.8732,-0.8739,-0.8644,-0.8643,-0.8643,-0.8642,0,-0.9078,-0.9062,-0.9069,-0.902,-0.9002,-0.8998,-0.8941,-0.893,-0.8894,-0.8857,-0.8847,-0.8805,-0.8773,-0.8768,-0.8733,-0.8758,-0.8746,-0.8712,-0.867,-0.8728,-0.8745,-0.8751,-0.865,-0.8649,-0.8647,-0.8646,0,0,-0.9192,-0.9112,-0.9115,-0.9093,-0.9037,-0.9024,-0.9018,-0.8986,-0.8979,-0.8946,-0.894,-0.8912,-0.8881,-0.886,-0.8821,-0.8825,-0.8873,-0.8791,-0.8789,-0.8809,-0.8899,-0.8926,-0.8935,-0.8846,-0.8847,-0.8848,-0.8903,0,-0.9246,-0.923,-0.9179,-0.9179,-0.9165,-0.9103,-0.9098,-0.9064,-0.903,-0.9014,-0.8976,-0.8958,-0.8917,-0.8905,-0.8906,-0.8867,-0.889,-0.8862,-0.8842,-0.8842,-0.8856,-0.8943,-0.8971,-0.9025,-0.8909,-0.891,-0.8911,0,-0.9307,-0.9278,-0.9277,-0.9222,-0.9214,-0.9211,-0.9178,-0.9163,-0.9124,-0.9099,-0.9076,-0.9033,-0.9025,-0.8986,-0.8975,-0.8957,-0.8946,-0.8926,-0.8926,-0.8923,-0.8881,-0.8944,-0.904,-0.9049,-0.8921,-0.892,-0.8919,0,-0.9391,-0.9352,-0.9346,-0.9329,-0.9265,-0.9265,-0.9238,-0.9197,-0.9182,-0.9154,-0.9144,-0.9115,-0.91,-0.908,-0.9031,-0.9007,-0.9027,-0.8983,-0.9007,-0.9009,-0.9014,-0.9015,-0.9112,-0.9006,-0.9006,-0.9006,-0.9006,0,-0.9457,-0.946,-0.9384,-0.9381,-0.9382,-0.9323,-0.9326,-0.9294,-0.9259,-0.9249,-0.9194,-0.9187,-0.9123,-0.9109,-0.9071,-0.9068,-0.9062,-0.9042,-0.9033,-0.9048,-0.9051,-0.904,-0.9036,-0.9008,-0.9007,-0.9007,-0.9007,0,-0.9552,-0.9501,-0.9491,-0.9432,-0.9417,-0.9421,-0.9371,-0.9366,-0.9329,-0.9318,-0.9312,-0.9255,-0.9235,-0.9185,-0.9152,-0.9127,-0.9136,-0.9116,-0.9149,-0.9143,-0.917,-0.9169,-0.9265,-0.9275,-0.9162,-0.9163,-0.9164,0,-0.9598,-0.9598,-0.9539,-0.9529,-0.9505,-0.9488,-0.9472,-0.9415,-0.9401,-0.9358,-0.9359,-0.9335,-0.9313,-0.9285,-0.9241,-0.9217,-0.9197,-0.9233,-0.9193,-0.9209,-0.92,-0.9201,-0.9201,-0.9242,-0.9243,-0.9244,-0.9245,0,-0.9686,-0.9661,-0.9639,-0.961,-0.9592,-0.9567,-0.9538,-0.9533,-0.9469,-0.9456,-0.9435,-0.9418,-0.9385,-0.9363,-0.9332,-0.9306,-0.9266,-0.9258,-0.9263,-0.9279,-0.9298,-0.929,-0.9174,-0.9256,-0.9255,-0.9254,-0.9254,-0.9253,-0.9758,-0.9756,-0.9715,-0.9693,-0.9666,-0.964,-0.9633,-0.9596,-0.9577,-0.9545,-0.9513,-0.9497,-0.9459,-0.9413,-0.939,-0.9377,-0.9356,-0.9362,-0.9364,-0.9367,-0.9375,-0.93,-0.9371,-0.9371,-0.9371,-0.937,-0.937,0,-0.9844,-0.9814,-0.9795,-0.9757,-0.9741,-0.9703,-0.967,-0.9659,-0.9645,-0.9613,-0.9592,-0.957,-0.9548,-0.9503,-0.9478,-0.9477,-0.9458,-0.9472,-0.9472,-0.9467,-0.9394,-0.9393,-0.9488,-0.9488,-0.9488,-0.9488,-0.9488,-0.9488,-0.9887,-0.9882,-0.9852,-0.9834,-0.9804,-0.9787,-0.9772,-0.9749,-0.9723,-0.97,-0.9682,-0.9652,-0.9615,-0.9587,-0.9567,-0.9554,-0.9548,-0.9569,-0.9551,-0.9483,-0.9472,-0.9462,-0.9461,-0.9568,-0.9568,-0.9625,-0.9625,-0.9626]},{"header":{"parameterUnit":"m.s-1","parameterCategory":1,"la1":30.2991,"la2":30.254,"lo1":-89.0895,"lo2":-89.0444,"dy":0.0017,"dx":0.0017,"nx":28,"ny":28,"refTime":"2024-08-20T21:00:00:Z","depth":0,"parameterNumber":3,"parameterNumberName":"V-component_of_WINDS"},"data":[0,0,0,0,0,0,0,0,0,0,0,0,0,0,0,0,0,0,0,0,0,0,0,0,0,0,0,0,0,0,0,0,0,0,0,0,0,0,0,0,0,0,0,0,0,0,0,0,0,0,0,0,0,0,0,0,0,0,-1.2076,-1.2075,0,-1.2011,-1.201,-1.201,-1.1979,-1.1979,-1.1979,-1.1979,-1.191,-1.1908,-1.1907,0,0,0,0,0,0,0,0,0,0,0,0,0,-1.2172,-1.217,-1.2076,-1.2075,-1.2074,-1.2011,-1.201,-1.2009,-1.1979,-1.1979,-1.1979,-1.1979,-1.1911,-1.1909,-1.1906,0,0,0,0,0,0,0,0,0,0,0,0,0,-1.2121,-1.2169,-1.2076,-1.2051,-1.2049,-1.2011,-1.201,-1.2009,-1.1979,-1.1979,-1.1979,-1.1979,-1.1912,-1.1909,-1.1906,-1.1888,0,0,-1.1898,-1.1896,0,0,0,0,0,0,0,0,-1.2124,-1.2117,-1.2056,-1.2053,-1.205,-1.2003,-1.2019,-1.1968,-1.1979,-1.2005,-1.1979,-1.1979,-1.1941,-1.1936,-1.1923,-1.1884,-1.1881,-1.1897,-1.1896,-1.1894,-1.1894,0,0,0,0,0,0,0,-1.2127,-1.212,-1.205,-1.2055,-1.2051,-1.2043,-1.2036,-1.2009,-1.1973,-1.2003,-1.2001,-1.1994,-1.1939,-1.1926,-1.1922,-1.188,-1.1897,-1.1895,-1.1893,-1.1892,-1.1824,-1.1824,0,0,0,0,0,0,-1.2135,-1.2123,-1.2052,-1.2048,-1.2088,-1.2041,-1.2033,-1.2018,-1.1974,-1.1967,-1.1994,-1.1992,-1.1931,-1.1925,-1.1919,-1.1895,-1.1894,-1.1892,-1.189,-1.1824,-1.1824,-1.1824,0,0,0,0,0,0,-1.2137,-1.2129,-1.2055,-1.2085,-1.2075,-1.204,-1.2023,-1.2017,-1.2004,-1.1967,-1.196,-1.1987,-1.1931,-1.1923,-1.1896,-1.1892,-1.1891,-1.1888,-1.1824,-1.1824,-1.1824,-1.1847,0,0,0,0,0,0,-1.214,-1.213,-1.2123,-1.2085,-1.2073,-1.2033,-1.2022,-1.2015,-1.1999,-1.1997,-1.1958,-1.1952,-1.193,-1.19,-1.1893,-1.1888,-1.1886,-1.1824,-1.1824,-1.1824,-1.1846,-1.1847,-1.1848,0,0,0,0,0,-1.2144,-1.2131,-1.2123,-1.2114,-1.2064,-1.2033,-1.2026,-1.2002,-1.1999,-1.1991,-1.1968,-1.1953,-1.1894,-1.1898,-1.189,-1.1884,-1.1824,-1.1824,-1.1824,-1.1845,-1.1847,-1.1848,0,0,0,0,0,0,-1.2168,-1.2125,-1.2116,-1.2091,-1.2066,-1.2028,-1.2018,-1.2004,-1.1979,-1.1978,-1.1948,-1.194,-1.1916,-1.1897,-1.1902,-1.1864,-1.1858,-1.1856,-1.1877,-1.1878,-1.1879,-1.1884,-1.1883,0,0,0,0,0,-1.2171,-1.215,-1.2114,-1.2095,-1.2083,-1.2053,-1.2038,-1.2022,-1.1995,-1.1984,-1.1958,-1.1932,-1.1907,-1.1892,-1.1867,-1.1843,-1.1835,-1.1835,-1.1836,-1.1837,-1.1836,-1.1823,-1.1823,-1.1823,-1.1823,-1.1823,0,0,-1.2175,-1.215,-1.2138,-1.2099,-1.2078,-1.2057,-1.2044,-1.2022,-1.2006,-1.198,-1.1954,-1.1934,-1.1903,-1.1878,-1.1865,-1.1861,-1.1834,-1.1837,-1.1838,-1.1836,-1.1822,-1.1822,-1.1823,-1.1822,-1.1823,-1.1823,0,0,-1.2173,-1.2152,-1.2134,-1.2114,-1.2083,-1.2063,-1.2059,-1.2023,-1.201,-1.1983,-1.1964,-1.1944,-1.1902,-1.1881,-1.1864,-1.1856,-1.1842,-1.1849,-1.1855,-1.1842,-1.1842,-1.1842,-1.1839,-1.1839,-1.1848,-1.1848,-1.1848,0,-1.2183,-1.2151,-1.2127,-1.2106,-1.209,-1.2067,-1.205,-1.2031,-1.1993,-1.1982,-1.1978,-1.1926,-1.1903,-1.1873,-1.1871,-1.1859,-1.1853,-1.1853,-1.1844,-1.1844,-1.1843,-1.184,-1.184,-1.1849,-1.1849,-1.1849,-1.1849,0,-1.2165,-1.2143,-1.2133,-1.2098,-1.2081,-1.2062,-1.2034,-1.2019,-1.2005,-1.1985,-1.1959,-1.1931,-1.19,-1.1892,-1.1877,-1.186,-1.1859,-1.185,-1.1843,-1.1845,-1.1842,-1.184,-1.185,-1.185,-1.185,-1.1849,0,0,-1.2175,-1.2129,-1.2125,-1.211,-1.2075,-1.2057,-1.2037,-1.2009,-1.1997,-1.1972,-1.1954,-1.192,-1.1912,-1.1894,-1.1876,-1.1865,-1.1862,-1.1858,-1.1857,-1.186,-1.1842,-1.1849,-1.1848,-1.1852,-1.1852,-1.1852,-1.1844,0,-1.2169,-1.2133,-1.2111,-1.2084,-1.2064,-1.2043,-1.2026,-1.2002,-1.1984,-1.1963,-1.1943,-1.1919,-1.191,-1.1899,-1.1887,-1.1865,-1.1857,-1.1865,-1.1835,-1.1835,-1.1844,-1.1846,-1.1853,-1.1847,-1.1843,-1.1843,-1.1843,0,-1.2156,-1.2133,-1.2104,-1.2073,-1.2063,-1.2048,-1.2021,-1.2002,-1.1975,-1.1962,-1.1943,-1.1926,-1.1904,-1.1899,-1.1868,-1.1874,-1.1861,-1.1848,-1.1847,-1.1843,-1.1839,-1.1842,-1.1845,-1.1844,-1.184,-1.1841,-1.1841,0,-1.2167,-1.2129,-1.2107,-1.2094,-1.2056,-1.2047,-1.203,-1.2003,-1.1988,-1.1964,-1.1954,-1.1927,-1.1912,-1.1892,-1.1868,-1.1867,-1.184,-1.1833,-1.1828,-1.1829,-1.1823,-1.1824,-1.1824,-1.1815,-1.1815,-1.1815,-1.1815,0,-1.2162,-1.2145,-1.2112,-1.2098,-1.2079,-1.2055,-1.2036,-1.2018,-1.1994,-1.1977,-1.1956,-1.194,-1.191,-1.189,-1.1871,-1.1848,-1.1842,-1.1831,-1.1826,-1.1833,-1.1834,-1.1823,-1.1823,-1.1815,-1.1815,-1.1815,-1.1815,0,-1.2171,-1.2148,-1.2123,-1.209,-1.2081,-1.2069,-1.204,-1.2026,-1.2007,-1.1985,-1.1978,-1.1948,-1.1924,-1.1898,-1.1864,-1.1852,-1.183,-1.1823,-1.184,-1.1837,-1.1834,-1.1835,-1.1827,-1.1825,-1.1817,-1.1818,-1.1818,0,-1.2169,-1.2156,-1.2123,-1.211,-1.2095,-1.2074,-1.2059,-1.2034,-1.2019,-1.1988,-1.1978,-1.1952,-1.193,-1.1892,-1.1867,-1.1841,-1.1834,-1.1833,-1.1829,-1.1837,-1.1834,-1.1835,-1.1834,-1.1834,-1.1834,-1.1834,-1.1834,0,-1.2169,-1.2159,-1.2138,-1.2114,-1.2097,-1.2076,-1.2054,-1.2045,-1.2016,-1.2,-1.1976,-1.1959,-1.1925,-1.19,-1.1872,-1.1854,-1.1839,-1.1836,-1.1833,-1.184,-1.185,-1.1845,-1.1843,-1.1836,-1.1836,-1.1836,-1.1835,-1.1835,-1.2173,-1.2161,-1.2136,-1.2113,-1.2095,-1.2076,-1.2062,-1.2042,-1.2021,-1.1993,-1.1979,-1.1955,-1.1928,-1.1889,-1.1872,-1.1852,-1.1848,-1.1844,-1.1843,-1.1843,-1.1845,-1.1854,-1.1847,-1.1847,-1.1846,-1.1846,-1.1846,0,-1.2172,-1.2155,-1.2135,-1.2106,-1.2089,-1.2078,-1.2054,-1.204,-1.202,-1.1997,-1.1976,-1.1949,-1.1924,-1.1898,-1.1872,-1.1861,-1.1854,-1.1855,-1.1855,-1.1852,-1.185,-1.1855,-1.1861,-1.1861,-1.1861,-1.1861,-1.1861,-1.1861,-1.2169,-1.2149,-1.2135,-1.2106,-1.2088,-1.2065,-1.2053,-1.2035,-1.2017,-1.1987,-1.1967,-1.1951,-1.1926,-1.1899,-1.1876,-1.1869,-1.186,-1.1863,-1.1854,-1.1853,-1.1852,-1.185,-1.1855,-1.1862,-1.1862,-1.1858,-1.1858,-1.1858]}]]